Temperature
7 8 8 9 9 10 10 10 11 12 13 12 12 13 14 15 15 15 16 16 16 16 16 16 15 15 14 14 14 14 13 13 13 12 12 12 12 12 12 11 11 11 11 11
8 8 9 10 9 9 9 9 10 11 12 12 12 13 14 15 15 15 16 16 16 16 16 15 15 15 14 14 14 14 14 13 13 13 13 12 12 12 12 11 11 11 11 11
8 9 9 9 8 8 9 9 10 10 11 12 12 12 14 15 15 15 15 16 16 16 16 16 15 15 15 14 14 14 14 14 13 13 12 12 12 12 11 11 11 11 11 11
8 8 8 8 8 9 9 10 10 10 10 10 11 11 14 15 15 15 16 16 16 16 16 15 15 15 15 15 15 15 14 14 13 13 12 12 12 12 12 12 12 12 12 11
8 8 8 8 9 9 9 9 9 9 9 9 10 11 13 14 14 15 16 16 15 15 15 15 15 15 15 15 15 15 14 14 13 13 13 12 12 12 12 12 12 12 12 12
8 8 8 8 9 9 9 9 9 9 9 9 11 11 12 14 14 15 15 15 15 14 14 15 15 15 15 15 15 14 14 14 14 13 13 12 12 12 12 12 12 12 12 12
7 8 8 8 8 8 8 8 8 8 9 10 12 11 12 14 14 14 14 14 14 13 13 13 14 14 14 15 15 14 14 14 14 13 13 13 13 12 12 13 13 13 13 13
7 8 8 8 8 8 8 8 8 8 9 11 11 11 13 13 13 13 13 13 13 13 13 13 13 13 14 14 15 14 14 14 14 13 13 13 13 12 12 12 13 13 13 14
6 7 8 8 8 8 7 8 8 8 8 9 10 11 12 12 13 13 12 12 12 12 12 12 12 12 13 13 14 14 14 14 14 14 14 13 13 13 13 13 13 13 13 14
5 5 7 7 7 8 8 8 8 7 8 9 11 11 12 12 12 12 12 12 11 11 11 11 11 12 12 13 13 14 14 14 14 14 14 14 13 13 13 13 13 13 13 13
5 4 6 6 6 7 7 7 7 7 8 9 10 12 12 11 11 11 11 11 10 10 10 10 11 11 12 12 13 13 13 14 13 14 14 13 14 14 13 13 13 13 13 13
5 5 5 6 7 7 7 7 7 7 7 8 9 10 11 11 11 10 10 10 9 9 9 10 10 11 11 11 12 12 13 13 13 13 13 13 14 13 13 13 13 13 13 13
4 4 4 6 6 5 5 6 6 6 6 7 8 10 11 10 10 10 10 9 9 9 9 9 9 10 10 11 11 12 12 13 13 13 13 13 13 13 13 13 13 13 13 13
4 3 4 5 6 5 4 5 5 5 5 6 8 9 10 10 10 10 9 9 8 8 8 8 8 9 9 10 10 11 11 12 12 13 13 13 13 13 13 13 13 13 13 12
4 3 4 4 5 5 4 5 5 4 5 6 7 8 9 9 9 9 8 8 8 8 7 7 7 8 8 9 9 10 11 11 12 12 12 13 13 13 12 12 12 12 12 12
3 3 3 3 4 4 4 5 5 5 5 5 6 7 8 8 8 8 8 7 7 7 7 6 6 7 7 8 8 9 10 10 11 11 12 12 12 12 12 12 12 12 12 12
2 2 2 4 4 3 4 5 5 5 6 6 6 7 8 7 7 7 7 6 6 6 6 6 6 6 6 7 8 8 9 9 10 10 11 11 12 12 12 12 12 11 12 12
2 2 2 3 3 2 6 6 6 6 6 6 6 7 7 7 7 6 6 6 6 6 6 6 6 6 6 6 7 7 8 8 9 9 10 11 11 11 11 11 11 11 11 11
2 2 2 2 3 4 5 6 5 5 5 6 6 6 6 6 6 6 5 5 5 5 5 5 5 6 6 6 6 7 7 8 8 9 9 10 10 10 11 11 11 11 11 11
2 2 2 2 2 3 6 5 5 5 5 5 5 5 5 5 5 6 5 4 4 5 5 5 5 5 6 6 6 6 7 7 8 8 9 10 10 10 10 10 10 10 10 10
1 1 1 2 2 4 5 5 4 4 5 5 5 5 4 5 5 5 4 4 4 4 4 5 5 5 5 5 5 6 6 7 7 8 8 9 9 10 10 10 10 10 10 10
2 2 1 2 1 3 5 4 4 4 5 4 4 4 4 4 4 3 3 3 4 4 4 4 5 5 5 5 5 5 6 6 7 7 8 8 9 9 9 9 9 9 9 9
2 3 3 3 4 5 4 4 4 4 4 4 4 3 3 3 3 3 3 3 3 3 4 4 4 4 5 5 5 5 5 6 7 7 8 8 8 9 9 8 9 9 9 9
3 3 2 3 4 4 4 3 3 3 3 3 3 3 3 3 3 3 3 3 3 3 3 3 4 4 4 4 5 5 5 6 6 7 7 8 8 8 8 8 8 8 8 8
3 2 2 2 4 4 3 3 3 3 3 2 2 2 2 2 2 2 2 2 2 2 3 3 3 3 4 4 4 4 5 5 5 6 7 7 7 7 8 8 8 8 8 8
3 2 2 3 4 4 4 3 3 2 2 2 2 2 1 1 1 1 2 2 2 2 2 2 2 3 3 3 4 4 4 5 5 5 6 6 7 7 7 7 7 7 8 8
Wind_Speed
3 5 9 10 12 12 13 14 17 17 12 13 19 22 21 17 17 19 20 20 19 20 19 17 18 18 18 20 21 22 22 21 18 15 15 14 13 13 12 12 15 17 17 17
4 9 11 10 10 11 14 16 16 14 11 13 17 22 21 19 20 19 20 20 20 19 16 16 18 19 20 21 22 23 23 23 21 17 16 14 14 12 12 12 14 17 17 17
8 6 5 8 10 11 14 16 15 14 12 13 14 18 19 18 18 19 20 20 19 18 18 17 18 20 21 22 23 21 24 23 23 21 15 13 11 10 11 13 13 16 18 18
7 7 8 9 11 11 13 12 14 13 11 9 8 11 15 14 15 17 18 17 17 17 17 17 17 19 21 22 21 22 23 23 23 22 18 20 17 15 16 14 14 16 18 18
6 5 7 10 11 10 9 10 12 13 13 12 12 10 11 10 13 14 14 14 14 14 15 16 16 17 19 20 19 19 22 23 23 23 23 22 19 17 14 14 16 16 16 18
9 8 7 7 8 9 8 8 9 9 8 10 13 11 11 9 11 11 11 11 11 10 11 12 13 14 15 16 17 18 20 22 23 24 24 24 23 21 18 18 16 15 13 15
6 7 6 5 6 5 5 5 3 4 6 8 7 9 10 7 8 9 9 8 7 7 7 8 9 10 13 15 16 17 20 22 23 24 24 25 25 23 22 20 18 17 14 14
6 6 4 5 6 6 7 6 5 5 6 6 6 10 7 4 5 6 6 6 5 5 6 6 6 8 10 12 15 17 19 21 23 24 24 24 24 19 18 20 18 18 15 16
5 6 4 5 6 6 4 7 6 6 7 7 7 8 7 5 5 4 4 4 4 5 6 6 6 7 9 10 12 15 18 19 21 23 24 23 23 22 20 20 19 16 16 15
4 7 7 5 4 7 7 5 4 5 5 7 9 10 7 4 3 3 4 5 6 7 7 7 7 6 7 9 10 12 15 17 19 21 22 19 22 22 21 19 20 19 18 17
5 6 6 4 5 7 6 6 5 5 6 6 8 5 1 2 2 4 7 8 9 9 9 9 8 8 7 7 8 9 12 15 17 18 20 21 21 21 21 19 20 19 18 18
5 5 7 8 6 5 7 8 7 6 7 7 8 7 1 1 4 7 10 11 11 11 11 10 9 8 6 6 7 8 10 13 15 16 18 19 19 20 20 20 20 20 19 19
3 4 5 5 4 5 5 8 8 8 7 9 11 9 1 3 8 11 12 13 13 13 12 11 10 8 7 6 6 7 9 10 12 14 16 18 18 19 21 21 20 19 19 18
4 6 9 10 7 3 6 9 10 9 9 12 16 17 13 13 15 15 15 14 14 13 12 11 10 9 8 7 6 6 7 8 9 11 14 16 18 19 19 19 19 19 19 19
4 7 11 15 14 12 13 14 14 15 16 15 18 20 19 17 17 16 15 14 14 13 12 12 11 11 9 8 7 6 6 6 7 10 12 15 15 16 17 17 18 18 18 18
4 7 8 12 13 14 17 18 18 18 18 20 21 22 18 15 13 13 13 12 13 13 13 12 12 11 10 9 8 7 6 6 7 9 11 12 12 13 15 16 16 17 17 17
5 6 6 10 10 11 14 16 18 17 16 16 19 18 14 13 13 13 12 12 12 13 12 12 11 11 11 10 9 8 7 6 7 8 9 10 11 12 13 13 15 16 16 16
9 8 6 7 7 12 9 4 9 14 16 15 16 15 14 14 14 13 11 11 12 12 12 12 11 11 11 10 9 8 6 6 6 7 8 9 10 12 12 13 14 14 14 14
14 11 7 5 9 13 12 8 7 9 12 10 12 13 13 12 12 10 7 8 10 11 12 11 11 11 10 9 8 7 6 5 5 6 7 8 10 11 12 13 13 13 12 13
13 12 9 8 9 9 7 3 4 6 10 6 7 9 9 8 8 8 8 10 12 12 11 11 11 11 10 8 7 6 6 5 5 6 7 8 9 11 11 12 12 11 11 11
8 9 14 15 12 11 9 3 3 7 6 4 6 7 8 8 9 11 12 12 12 12 12 11 11 10 9 8 6 6 6 7 6 6 6 7 8 10 10 10 10 10 10 10
10 8 10 10 11 12 5 5 7 7 5 5 7 8 9 11 12 12 12 12 12 12 11 10 10 9 8 7 7 7 7 7 6 5 5 6 7 7 7 9 9 10 10 10
11 11 7 10 11 8 6 9 9 8 9 10 10 10 10 12 13 13 13 12 12 12 11 10 10 10 9 7 7 8 8 7 6 5 5 6 6 7 8 9 9 9 10 9
9 10 10 11 15 15 13 13 12 12 12 12 12 12 12 13 13 13 13 12 12 11 11 10 10 10 10 9 8 8 8 7 6 6 5 5 5 6 7 7 8 8 9 9
11 8 12 17 17 15 15 14 15 14 14 13 12 13 13 13 14 13 13 12 12 11 10 10 10 10 11 10 9 9 8 7 7 6 5 5 5 6 6 6 7 8 8 9
14 15 15 15 15 13 15 14 13 14 14 14 13 14 13 13 14 14 13 12 11 11 10 10 10 11 11 11 10 9 7 7 7 6 5 4 4 5 5 6 4 3 5 7
Wind_Direction
213 227 239 243 242 258 263 264 262 262 259 257 259 262 263 261 254 253 248 243 242 237 232 224 220 213 208 204 201 199 196 194 191 190 190 190 193 194 195 197 197 195 195 194
232 242 253 261 262 265 260 263 266 271 264 258 264 265 262 258 254 251 251 244 240 239 235 225 216 209 207 205 203 201 199 196 194 194 193 195 194 197 197 195 199 199 198 197
244 266 272 256 258 259 260 259 262 270 280 258 266 267 257 255 250 249 251 248 242 237 234 228 218 211 207 206 204 202 200 198 196 193 191 190 190 192 196 197 199 201 201 200
258 263 263 258 256 259 265 264 264 265 269 265 250 271 263 255 253 250 247 243 242 237 232 229 222 214 210 208 204 204 202 200 197 193 192 191 194 198 200 198 199 200 202 202
259 268 263 259 263 262 267 278 268 261 261 265 251 258 266 254 254 251 247 243 243 239 234 230 225 218 213 209 202 203 203 201 198 196 196 197 202 204 200 198 199 199 201 203
265 268 267 266 274 264 273 278 271 254 251 252 240 239 266 248 253 257 252 245 246 248 243 237 230 223 216 209 203 201 204 203 200 199 200 201 204 203 198 197 197 198 199 201
274 256 247 254 273 256 254 263 258 236 230 248 232 236 254 268 266 261 260 257 254 258 256 249 239 229 219 209 202 200 204 206 202 201 202 205 206 205 203 199 199 197 198 200
280 272 236 239 247 255 246 237 247 262 253 268 243 241 255 288 276 271 270 269 268 265 266 263 256 245 230 216 207 201 204 209 205 203 204 206 207 207 208 205 202 201 202 202
266 273 273 262 260 239 244 235 249 273 277 269 247 251 268 277 276 287 300 304 303 296 288 280 273 260 243 226 215 208 206 210 210 207 206 207 206 207 208 206 206 205 205 201
262 277 276 276 256 230 241 251 229 234 257 258 255 255 252 248 272 315 331 337 339 331 318 304 293 279 259 239 224 215 211 211 213 210 208 207 207 207 207 206 206 205 203 199
242 259 273 261 233 239 228 224 233 242 256 264 265 259 235 221 327 338 344 346 342 339 333 322 307 293 270 250 231 220 220 215 213 212 210 209 208 207 207 207 207 206 204 200
229 251 265 261 258 262 241 236 226 240 251 257 269 268 255 268 344 347 342 340 336 334 331 325 316 304 285 265 244 228 225 221 217 213 212 211 208 206 207 208 207 205 204 202
219 238 271 265 228 222 241 246 245 248 258 255 257 258 212 308 323 329 328 328 328 326 328 327 323 313 301 282 265 246 231 226 223 218 213 210 208 206 207 208 206 205 203 202
250 237 242 261 284 269 256 256 246 239 246 254 253 265 273 290 304 313 316 317 320 321 325 326 324 320 312 296 277 263 247 233 225 222 215 211 209 207 208 207 205 204 202 201
239 253 252 263 270 269 268 265 255 245 247 253 264 268 276 288 297 302 306 312 316 319 325 326 323 320 315 309 292 276 264 250 231 224 219 215 212 208 206 206 205 203 202 201
231 254 262 264 264 266 266 264 259 254 254 256 264 270 280 287 295 297 301 307 310 313 318 322 321 317 314 311 304 289 275 260 241 230 223 215 210 206 205 204 202 202 200 199
222 233 252 265 273 276 262 256 251 249 249 252 258 269 284 288 290 292 296 299 303 308 313 316 316 315 313 310 305 295 282 267 249 237 228 214 207 205 203 200 199 199 200 198
223 230 244 268 266 251 258 258 251 252 256 254 260 271 280 285 288 287 286 292 298 307 311 313 312 313 310 306 302 297 287 268 251 240 231 216 206 205 201 197 198 198 198 197
219 222 234 246 256 268 270 254 240 247 262 261 265 277 283 289 287 276 288 296 295 300 303 305 308 308 305 302 301 299 289 275 258 245 235 222 210 204 199 198 198 196 195 196
212 216 227 236 249 258 269 239 234 244 262 263 271 282 291 291 281 289 311 304 302 302 301 302 307 307 303 300 297 293 290 280 267 255 244 228 214 205 202 200 197 193 192 193
196 211 223 235 246 261 268 239 199 234 265 285 274 282 287 276 275 295 302 301 303 302 301 305 307 303 301 300 296 289 287 282 283 274 255 233 216 207 202 198 194 188 185 184
205 211 218 226 238 250 227 191 220 253 284 278 277 281 282 283 288 295 299 300 304 304 302 306 307 305 305 303 296 290 288 292 288 271 250 232 217 205 197 192 189 184 181 182
217 218 222 221 238 264 233 231 247 266 269 275 279 281 283 284 288 293 295 297 300 301 302 305 304 303 303 302 298 292 296 299 290 271 249 230 212 200 194 189 185 183 183 185
232 228 236 248 253 259 261 258 258 263 267 275 278 279 280 281 285 290 293 294 297 300 301 303 303 301 302 304 301 295 296 294 284 272 256 226 208 198 191 188 186 187 189 189
236 219 236 249 258 267 260 257 262 267 268 272 275 275 276 278 280 284 287 290 292 294 297 299 296 296 297 302 301 299 297 291 283 271 254 224 205 196 192 193 194 193 198 196
235 233 238 250 256 259 267 267 266 265 267 271 273 274 273 272 276 280 282 286 288 287 291 292 292 292 294 297 297 296 292 282 278 272 255 226 207 197 190 184 181 184 190 182
Height
1462 1461 1455 1452 1452 1450 1448 1445 1441 1436 1435 1438 1433 1427 1424 1423 1423 1422 1421 1421 1421 1422 1425 1428 1431 1434 1437 1441 1445 1449 1453 1457 1462 1466 1470 1474 1478 1483 1487 1490 1494 1497 1500 1503
1460 1455 1451 1451 1451 1450 1447 1444 1439 1435 1434 1433 1428 1422 1417 1417 1415 1415 1415 1414 1414 1416 1418 1421 1423 1426 1430 1433 1437 1442 1446 1450 1455 1459 1464 1469 1474 1478 1482 1486 1489 1492 1496 1499
1454 1450 1450 1450 1449 1448 1445 1441 1437 1434 1431 1428 1426 1416 1410 1407 1407 1408 1408 1407 1408 1409 1411 1414 1416 1418 1422 1426 1430 1434 1439 1443 1448 1453 1459 1464 1469 1473 1476 1479 1483 1487 1491 1494
1451 1449 1449 1447 1445 1444 1440 1436 1435 1434 1433 1427 1425 1416 1401 1399 1399 1399 1400 1400 1401 1402 1405 1407 1409 1411 1414 1419 1423 1428 1432 1437 1442 1447 1451 1456 1459 1463 1467 1472 1477 1481 1485 1489
1448 1447 1446 1444 1442 1442 1437 1435 1434 1432 1430 1428 1421 1418 1399 1395 1395 1393 1393 1395 1396 1397 1399 1401 1402 1405 1408 1412 1416 1421 1426 1430 1435 1440 1444 1449 1453 1458 1463 1467 1471 1475 1479 1483
1447 1446 1445 1442 1440 1439 1437 1435 1432 1429 1428 1425 1411 1411 1397 1391 1390 1389 1390 1391 1392 1393 1395 1396 1397 1399 1402 1406 1410 1414 1419 1423 1428 1433 1437 1441 1446 1451 1456 1460 1464 1468 1472 1476
1443 1441 1441 1441 1439 1436 1436 1435 1431 1425 1421 1411 1403 1404 1394 1386 1388 1388 1388 1389 1389 1390 1391 1391 1393 1394 1396 1399 1403 1407 1412 1416 1420 1425 1430 1434 1439 1444 1449 1453 1457 1461 1465 1469
1443 1436 1436 1437 1437 1435 1433 1433 1431 1424 1412 1402 1402 1398 1387 1387 1388 1388 1388 1387 1387 1387 1388 1388 1389 1390 1391 1394 1397 1400 1404 1408 1413 1418 1422 1427 1432 1437 1442 1446 1450 1454 1458 1462
1445 1437 1435 1436 1434 1434 1432 1430 1428 1427 1418 1412 1398 1391 1387 1387 1386 1386 1386 1386 1385 1386 1386 1386 1386 1386 1387 1388 1391 1394 1397 1401 1405 1410 1415 1419 1424 1429 1433 1438 1443 1447 1451 1455
1448 1443 1435 1434 1434 1432 1431 1428 1428 1426 1418 1405 1390 1386 1382 1384 1384 1384 1384 1385 1385 1385 1384 1383 1382 1382 1383 1383 1385 1388 1391 1394 1398 1402 1407 1412 1416 1421 1426 1431 1435 1439 1444 1448
1448 1447 1436 1434 1431 1428 1430 1429 1427 1422 1417 1406 1392 1384 1382 1384 1386 1386 1386 1386 1386 1385 1383 1381 1379 1379 1378 1379 1380 1381 1384 1388 1391 1395 1399 1404 1408 1413 1418 1423 1427 1432 1437 1441
1446 1444 1435 1430 1428 1428 1427 1425 1424 1423 1417 1411 1399 1390 1385 1386 1387 1388 1388 1387 1386 1383 1381 1379 1377 1376 1375 1375 1375 1376 1379 1381 1384 1387 1392 1396 1400 1405 1410 1414 1419 1424 1429 1433
1445 1444 1436 1425 1428 1430 1428 1425 1424 1422 1419 1411 1402 1390 1386 1387 1387 1388 1388 1386 1384 1382 1379 1376 1374 1373 1371 1370 1371 1371 1373 1375 1378 1381 1385 1388 1392 1397 1401 1406 1411 1416 1421 1426
1443 1440 1436 1425 1420 1425 1426 1424 1423 1423 1417 1407 1397 1389 1387 1387 1387 1387 1387 1385 1383 1380 1378 1375 1373 1370 1369 1367 1367 1367 1368 1370 1371 1374 1377 1381 1384 1389 1393 1398 1403 1408 1413 1418
1440 1436 1432 1427 1424 1424 1422 1419 1418 1418 1412 1407 1394 1390 1388 1388 1388 1387 1385 1382 1380 1378 1376 1373 1371 1368 1366 1364 1363 1363 1363 1364 1365 1367 1370 1373 1377 1382 1386 1391 1396 1401 1405 1410
1438 1434 1430 1425 1421 1420 1417 1412 1410 1408 1406 1401 1396 1390 1388 1388 1387 1385 1383 1381 1378 1376 1374 1371 1368 1366 1363 1361 1360 1359 1358 1359 1360 1361 1363 1366 1370 1374 1378 1383 1388 1393 1398 1402
1434 1434 1430 1419 1416 1417 1408 1400 1400 1398 1395 1395 1391 1386 1386 1385 1384 1382 1380 1379 1376 1374 1372 1369 1366 1363 1361 1358 1356 1355 1354 1354 1355 1356 1357 1360 1363 1367 1371 1376 1380 1385 1390 1394
1430 1430 1427 1419 1419 1415 1393 1393 1393 1391 1388 1387 1385 1383 1384 1383 1381 1379 1378 1376 1374 1372 1369 1367 1363 1360 1358 1355 1353 1351 1350 1350 1350 1350 1352 1354 1358 1361 1365 1369 1373 1378 1382 1387
1423 1424 1422 1418 1411 1397 1390 1389 1391 1390 1385 1384 1382 1380 1380 1379 1377 1374 1374 1373 1371 1369 1367 1364 1361 1357 1354 1352 1350 1348 1347 1346 1345 1345 1346 1349 1352 1355 1358 1362 1366 1371 1375 1380
1418 1419 1419 1414 1410 1396 1382 1385 1386 1387 1382 1381 1380 1378 1377 1376 1373 1369 1370 1369 1367 1365 1362 1360 1357 1354 1351 1349 1347 1345 1344 1343 1342 1342 1342 1344 1347 1350 1353 1356 1360 1365 1369 1374
1413 1414 1412 1407 1402 1387 1381 1383 1385 1386 1378 1378 1377 1377 1376 1374 1373 1371 1368 1365 1363 1360 1358 1355 1353 1350 1348 1346 1344 1342 1341 1340 1339 1339 1339 1341 1342 1345 1348 1352 1355 1359 1363 1368
1400 1400 1401 1399 1397 1386 1378 1381 1380 1376 1375 1375 1375 1374 1373 1371 1369 1367 1364 1361 1359 1356 1354 1351 1349 1347 1345 1343 1341 1338 1337 1337 1336 1335 1336 1337 1338 1341 1343 1347 1350 1354 1358 1362
1390 1387 1384 1384 1379 1373 1375 1375 1374 1374 1373 1372 1371 1370 1369 1367 1365 1362 1360 1358 1355 1353 1350 1348 1346 1343 1341 1340 1338 1335 1334 1333 1332 1332 1332 1333 1334 1336 1339 1342 1345 1349 1353 1356
1382 1382 1381 1378 1371 1371 1371 1370 1370 1370 1369 1368 1367 1366 1365 1363 1360 1358 1356 1353 1351 1349 1347 1345 1343 1340 1338 1336 1334 1332 1331 1330 1329 1328 1328 1329 1330 1332 1335 1338 1341 1344 1346 1349
1373 1376 1374 1370 1366 1366 1365 1365 1365 1365 1364 1363 1362 1361 1360 1358 1355 1353 1351 1349 1347 1345 1343 1341 1339 1336 1334 1332 1330 1329 1327 1326 1325 1324 1324 1325 1326 1328 1330 1333 1336 1339 1341 1344
1366 1367 1366 1360 1359 1360 1358 1359 1359 1359 1358 1357 1356 1354 1353 1352 1350 1348 1346 1344 1342 1340 1338 1336 1335 1332 1330 1328 1326 1325 1324 1323 1321 1320 1320 1320 1322 1324 1326 1328 1331 1334 1337 1340